Time,TemperatureF,DewpointF,PressureIn,WindDirection,WindDirectionDegrees,WindSpeedMPH,WindSpeedGustMPH,Humidity,HourlyPrecipIn,Conditions,Clouds,dailyrainin,SolarRadiationWatts/m^2,SoftwareType,DateUTC
2013-07-27 00:02:00,64.0,62.0,-100.00,SSW,212,1.0,3.0,94,0.00,,,0.00,0.000000,,2013-07-27 04:02:00,
2013-07-27 00:12:00,64.0,62.0,-100.00,SSW,212,1.0,3.0,94,0.00,,,0.00,0.000000,,2013-07-27 04:12:00,
2013-07-27 00:53:00,64.0,63.0,-100.00,West,268,1.0,2.0,96,0.00,,,0.00,0.000000,,2013-07-27 04:53:00,
2013-07-27 01:02:00,64.0,63.0,-100.00,West,268,1.0,2.0,96,0.00,,,0.00,0.000000,,2013-07-27 05:02:00,
2013-07-27 01:12:00,64.0,63.0,-100.00,West,268,1.0,2.0,96,0.00,,,0.00,0.000000,,2013-07-27 05:12:00,
2013-07-27 01:43:00,65.0,64.0,-100.00,SE,127,2.0,4.0,96,0.00,,,0.00,0.000000,,2013-07-27 05:43:00,
2013-07-27 01:52:00,65.0,64.0,-100.00,SE,127,2.0,4.0,96,0.00,,,0.00,0.000000,,2013-07-27 05:52:00,
2013-07-27 02:02:00,65.0,64.0,-100.00,SE,127,2.0,4.0,96,0.00,,,0.00,0.000000,,2013-07-27 06:02:00,
2013-07-27 02:12:00,65.0,64.0,-100.00,SE,127,2.0,4.0,96,0.00,,,0.00,0.000000,,2013-07-27 06:12:00,
2013-07-27 02:43:00,64.0,63.0,-100.00,West,278,1.0,4.0,95,0.00,,,0.00,0.000000,,2013-07-27 06:43:00,
2013-07-27 02:52:00,64.0,63.0,-100.00,West,278,1.0,4.0,95,0.00,,,0.00,0.000000,,2013-07-27 06:52:00,
2013-07-27 03:02:00,64.0,63.0,-100.00,West,278,1.0,4.0,95,0.00,,,0.00,0.000000,,2013-07-27 07:02:00,
2013-07-27 03:12:00,64.0,63.0,-100.00,West,278,1.0,4.0,95,0.00,,,0.00,0.000000,,2013-07-27 07:12:00,
2013-07-27 03:44:00,64.0,62.0,-100.00,SSW,193,1.0,5.0,94,0.00,,,0.00,0.000000,,2013-07-27 07:44:00,
2013-07-27 03:53:00,64.0,62.0,-100.00,SSW,193,1.0,5.0,94,0.00,,,0.00,0.000000,,2013-07-27 07:53:00,
2013-07-27 04:02:00,64.0,62.0,-100.00,SSW,193,1.0,5.0,94,0.00,,,0.00,0.000000,,2013-07-27 08:02:00,
2013-07-27 04:12:00,64.0,62.0,-100.00,SSW,193,1.0,5.0,94,0.00,,,0.00,0.000000,,2013-07-27 08:12:00,
2013-07-27 04:43:00,65.0,63.0,-100.00,NW,306,1.0,4.0,93,0.00,,,0.00,0.000000,,2013-07-27 08:43:00,
2013-07-27 04:53:00,65.0,63.0,-100.00,NW,306,1.0,4.0,93,0.00,,,0.00,0.000000,,2013-07-27 08:53:00,
2013-07-27 05:02:00,65.0,63.0,-100.00,NW,306,1.0,4.0,93,0.00,,,0.00,0.000000,,2013-07-27 09:02:00,
2013-07-27 05:12:00,65.0,63.0,-100.00,NW,306,1.0,4.0,93,0.00,,,0.00,0.000000,,2013-07-27 09:12:00,
2013-07-27 05:44:00,65.0,63.0,-100.00,West,269,1.0,2.0,93,0.00,,,0.00,0.000000,,2013-07-27 09:44:00,
2013-07-27 05:52:00,65.0,63.0,-100.00,West,269,1.0,2.0,93,0.00,,,0.00,0.000000,,2013-07-27 09:52:00,
2013-07-27 06:02:00,65.0,63.0,-100.00,West,269,1.0,2.0,93,0.00,,,0.00,0.000000,,2013-07-27 10:02:00,
2013-07-27 06:12:00,65.0,63.0,-100.00,West,269,1.0,2.0,93,0.00,,,0.00,0.000000,,2013-07-27 10:12:00,
2013-07-27 06:44:00,65.0,63.0,-100.00,WSW,238,2.0,4.0,94,0.00,,,0.00,0.000000,,2013-07-27 10:44:00,
2013-07-27 06:52:00,65.0,63.0,-100.00,WSW,238,2.0,4.0,94,0.00,,,0.00,0.000000,,2013-07-27 10:52:00,
2013-07-27 07:02:00,65.0,63.0,-100.00,WSW,238,2.0,4.0,94,0.00,,,0.00,0.000000,,2013-07-27 11:02:00,
2013-07-27 07:12:00,65.0,63.0,-100.00,WSW,238,2.0,4.0,94,0.00,,,0.00,0.000000,,2013-07-27 11:12:00,
2013-07-27 07:44:00,66.0,64.0,-100.00,SE,126,1.0,4.0,93,0.00,,,0.00,11.000000,,2013-07-27 11:44:00,
2013-07-27 07:53:00,66.0,64.0,-100.00,SE,126,1.0,4.0,93,0.00,,,0.00,11.000000,,2013-07-27 11:53:00,
2013-07-27 08:03:00,66.0,64.0,-100.00,SE,126,1.0,4.0,93,0.00,,,0.00,11.000000,,2013-07-27 12:03:00,
2013-07-27 08:12:00,66.0,64.0,-100.00,SE,126,1.0,4.0,93,0.00,,,0.00,11.000000,,2013-07-27 12:12:00,
2013-07-27 08:52:00,67.0,65.0,-100.00,West,262,2.0,4.0,92,0.00,,,0.00,52.000000,,2013-07-27 12:52:00,
2013-07-27 09:02:00,67.0,65.0,-100.00,West,262,2.0,4.0,92,0.00,,,0.00,52.000000,,2013-07-27 13:02:00,
2013-07-27 09:12:00,67.0,65.0,-100.00,West,262,2.0,4.0,92,0.00,,,0.00,52.000000,,2013-07-27 13:12:00,
2013-07-27 09:53:00,69.0,66.0,-100.00,ESE,116,2.0,4.0,91,0.00,,,0.00,70.000000,,2013-07-27 13:53:00,
2013-07-27 10:02:00,69.0,66.0,-100.00,ESE,116,2.0,4.0,91,0.00,,,0.00,70.000000,,2013-07-27 14:02:00,
2013-07-27 10:12:00,69.0,66.0,-100.00,ESE,116,2.0,4.0,91,0.00,,,0.00,70.000000,,2013-07-27 14:12:00,
2013-07-27 10:44:00,72.0,67.0,-100.00,WNW,288,2.0,4.0,84,0.00,,,0.00,99.000000,,2013-07-27 14:44:00,
2013-07-27 10:54:00,72.0,67.0,-100.00,WNW,288,2.0,4.0,84,0.00,,,0.00,99.000000,,2013-07-27 14:54:00,
2013-07-27 11:02:00,72.0,67.0,-100.00,WNW,288,2.0,4.0,84,0.00,,,0.00,99.000000,,2013-07-27 15:02:00,
2013-07-27 11:12:00,72.0,67.0,-100.00,WNW,288,2.0,4.0,84,0.00,,,0.00,99.000000,,2013-07-27 15:12:00,
2013-07-27 11:44:00,74.0,65.0,-100.00,WNW,299,3.0,9.0,73,0.00,,,0.00,177.000000,,2013-07-27 15:44:00,
2013-07-27 11:53:00,74.0,65.0,-100.00,WNW,299,3.0,9.0,73,0.00,,,0.00,177.000000,,2013-07-27 15:53:00,
2013-07-27 12:02:00,74.0,65.0,-100.00,WNW,299,3.0,9.0,73,0.00,,,0.00,177.000000,,2013-07-27 16:02:00,
2013-07-27 12:12:00,74.0,65.0,-100.00,WNW,299,3.0,9.0,73,0.00,,,0.00,177.000000,,2013-07-27 16:12:00,
2013-07-27 12:43:00,71.0,63.0,-100.00,WSW,242,2.0,11.0,75,0.12,,,0.12,148.000000,,2013-07-27 16:43:00,
2013-07-27 12:54:00,71.0,63.0,-100.00,WSW,242,2.0,11.0,75,0.12,,,0.12,148.000000,,2013-07-27 16:54:00,
2013-07-27 13:02:00,71.0,63.0,-100.00,WSW,242,2.0,11.0,75,0.12,,,0.12,148.000000,,2013-07-27 17:02:00,
2013-07-27 13:12:00,71.0,63.0,-100.00,WSW,242,2.0,11.0,75,0.12,,,0.12,148.000000,,2013-07-27 17:12:00,
2013-07-27 13:43:00,77.0,69.0,-100.00,ENE,65,3.0,6.0,77,0.00,,,0.12,419.000000,,2013-07-27 17:43:00,
2013-07-27 13:54:00,77.0,69.0,-100.00,ENE,65,3.0,6.0,77,0.00,,,0.12,419.000000,,2013-07-27 17:54:00,
2013-07-27 14:03:00,77.0,69.0,-100.00,ENE,65,3.0,6.0,77,0.00,,,0.12,419.000000,,2013-07-27 18:03:00,
2013-07-27 14:12:00,77.0,69.0,-100.00,ENE,65,3.0,6.0,77,0.00,,,0.12,419.000000,,2013-07-27 18:12:00,
2013-07-27 14:43:00,75.0,65.0,-100.00,WNW,282,5.0,12.0,72,0.00,,,0.12,275.000000,,2013-07-27 18:43:00,
2013-07-27 14:53:00,75.0,65.0,-100.00,WNW,282,5.0,12.0,72,0.00,,,0.12,275.000000,,2013-07-27 18:53:00,
2013-07-27 15:02:00,75.0,65.0,-100.00,WNW,282,5.0,12.0,72,0.00,,,0.12,275.000000,,2013-07-27 19:02:00,
2013-07-27 15:12:00,75.0,65.0,-100.00,WNW,282,5.0,12.0,72,0.00,,,0.12,275.000000,,2013-07-27 19:12:00,
2013-07-27 15:43:00,76.0,66.0,-100.00,West,259,4.0,9.0,71,0.00,,,0.12,301.000000,,2013-07-27 19:43:00,
2013-07-27 15:53:00,76.0,66.0,-100.00,West,259,4.0,9.0,71,0.00,,,0.12,301.000000,,2013-07-27 19:53:00,
2013-07-27 16:02:00,76.0,66.0,-100.00,West,259,4.0,9.0,71,0.00,,,0.12,301.000000,,2013-07-27 20:02:00,
2013-07-27 16:12:00,76.0,66.0,-100.00,West,259,4.0,9.0,71,0.00,,,0.12,301.000000,,2013-07-27 20:12:00,
2013-07-27 16:43:00,76.0,65.0,-100.00,WSW,251,3.0,10.0,69,0.00,,,0.12,334.000000,,2013-07-27 20:43:00,
2013-07-27 16:52:00,76.0,65.0,-100.00,WSW,251,3.0,10.0,69,0.00,,,0.12,334.000000,,2013-07-27 20:52:00,
2013-07-27 17:03:00,76.0,65.0,-100.00,WSW,251,3.0,10.0,69,0.00,,,0.12,334.000000,,2013-07-27 21:03:00,
2013-07-27 17:12:00,76.0,65.0,-100.00,WSW,251,3.0,10.0,69,0.00,,,0.12,334.000000,,2013-07-27 21:12:00,
2013-07-27 17:43:00,77.0,65.0,-100.00,SSW,211,3.0,11.0,67,0.00,,,0.12,367.000000,,2013-07-27 21:43:00,
2013-07-27 17:53:00,77.0,65.0,-100.00,SSW,211,3.0,11.0,67,0.00,,,0.12,367.000000,,2013-07-27 21:53:00,
2013-07-27 18:02:00,77.0,65.0,-100.00,SSW,211,3.0,11.0,67,0.00,,,0.12,367.000000,,2013-07-27 22:02:00,
2013-07-27 18:12:00,77.0,65.0,-100.00,SSW,211,3.0,11.0,67,0.00,,,0.12,367.000000,,2013-07-27 22:12:00,
2013-07-27 18:43:00,66.0,60.0,-100.00,West,268,4.0,16.0,82,0.08,,,0.20,36.000000,,2013-07-27 22:43:00,
2013-07-27 18:53:00,66.0,60.0,-100.00,West,268,4.0,16.0,82,0.08,,,0.20,36.000000,,2013-07-27 22:53:00,
2013-07-27 19:02:00,66.0,60.0,-100.00,West,268,4.0,16.0,82,0.08,,,0.20,36.000000,,2013-07-27 23:02:00,
2013-07-27 19:12:00,66.0,60.0,-100.00,West,268,4.0,16.0,82,0.08,,,0.20,36.000000,,2013-07-27 23:12:00,
2013-07-27 19:44:00,69.0,65.0,-100.00,NE,56,3.0,5.0,87,0.01,,,0.21,119.000000,,2013-07-27 23:44:00,
2013-07-27 19:53:00,69.0,65.0,-100.00,NE,56,3.0,5.0,87,0.01,,,0.21,119.000000,,2013-07-27 23:53:00,
2013-07-27 20:02:00,69.0,65.0,-100.00,NE,56,3.0,5.0,87,0.01,,,0.21,119.000000,,2013-07-28 00:02:00,
2013-07-27 20:12:00,69.0,65.0,-100.00,NE,56,3.0,5.0,87,0.01,,,0.21,119.000000,,2013-07-28 00:12:00,
2013-07-27 21:43:00,64.0,63.0,-100.00,East,99,1.0,2.0,95,-99.99,,,0.21,4.000000,,2013-07-28 01:43:00,
2013-07-27 21:53:00,64.0,63.0,-100.00,East,99,1.0,2.0,95,-99.99,,,0.21,4.000000,,2013-07-28 01:53:00,
2013-07-27 22:03:00,64.0,63.0,-100.00,East,99,1.0,2.0,95,-99.99,,,0.21,4.000000,,2013-07-28 02:03:00,
2013-07-27 22:12:00,64.0,63.0,-100.00,East,99,1.0,2.0,95,-99.99,,,0.21,4.000000,,2013-07-28 02:12:00,
2013-07-27 22:43:00,65.0,64.0,-100.00,West,269,1.0,2.0,97,0.00,,,-99.99,0.000000,,2013-07-28 02:43:00,
2013-07-27 22:53:00,65.0,64.0,-100.00,West,269,1.0,2.0,97,0.00,,,-99.99,0.000000,,2013-07-28 02:53:00,
2013-07-27 23:03:00,65.0,64.0,-100.00,West,269,1.0,2.0,97,0.00,,,-99.99,0.000000,,2013-07-28 03:03:00,
2013-07-27 23:12:00,65.0,64.0,-100.00,West,269,1.0,2.0,97,0.00,,,-99.99,0.000000,,2013-07-28 03:12:00,
2013-07-27 23:43:00,65.0,64.0,-100.00,SE,146,0.0,3.0,96,0.00,,,0.21,0.000000,,2013-07-28 03:43:00,
2013-07-27 23:53:00,65.0,64.0,-100.00,SE,146,0.0,3.0,96,0.00,,,0.21,0.000000,,2013-07-28 03:53:00,